When you browse on this site, cookies collect data to enhance your experience and personalize the content and advertising you see.
Visit our Privacy Policy to learn more. By continuing to use the site, you agree to this use of cookies and data.
  • In Lithuania
  • List of Countries
  • For 7 days
  • Water Temperature
  • Satellite Maps
  • Weather Map
  • Weather Widgets
  • user-avatar
    Login

    Hourly Weather Prudovyy

    Today, 10 December, Monday

    Time Temperature Precipitation Wind Pressure Humidity
    00:00 -2°C° 0 mm 5 mps 761 mmHg 89%
    01:00 -1°C° 0 mm 5 mps 760 mmHg 89%
    02:00 -1°C° 0 mm 5 mps 760 mmHg 90%
    03:00 -1°C° 0 mm 5 mps 760 mmHg 87%
    04:00 -1°C° 0 mm 5 mps 760 mmHg 87%
    05:00 0°C° 0 mm 5 mps 760 mmHg 87%
    06:00 0°C° 0 mm 5 mps 759 mmHg 87%
    07:00 -1°C° 0 mm 6 mps 759 mmHg 87%
    08:00 -1°C° 0 mm 6 mps 759 mmHg 88%
    09:00 +1°C° 0 mm 6 mps 759 mmHg 88%
    10:00 +1°C° 0 mm 6 mps 759 mmHg 87%
    11:00 +2°C° 0 mm 7 mps 758 mmHg 85%
    12:00 +2°C° 0 mm 7 mps 758 mmHg 83%
    13:00 +3°C° 0 mm 7 mps 758 mmHg 83%
    14:00 +3°C° 0 mm 7 mps 758 mmHg 83%
    15:00 +3°C° 0 mm 7 mps 757 mmHg 83%
    16:00 +3°C° 0 mm 7 mps 757 mmHg 84%
    17:00 +2°C° 0 mm 6 mps 757 mmHg 85%
    18:00 +2°C° 0 mm 6 mps 757 mmHg 86%
    19:00 +2°C° 0 mm 6 mps 757 mmHg 87%
    20:00 +2°C° 0 mm 6 mps 757 mmHg 87%
    21:00 +2°C° 0 mm 6 mps 757 mmHg 87%
    22:00 +2°C° 0 mm 6 mps 757 mmHg 88%
    23:00 +2°C° 0 mm 5 mps 757 mmHg 88%

    Tomorrow, 11 December, Tuesday

    Time Temperature Precipitation Wind Pressure Humidity
    00:00 +3°C° 0 mm 4 mps 757 mmHg 88%
    01:00 +3°C° 0 mm 4 mps 757 mmHg 89%
    02:00 +3°C° 0 mm 4 mps 757 mmHg 89%
    03:00 +3°C° 0 mm 4 mps 756 mmHg 89%
    04:00 +3°C° 0 mm 4 mps 756 mmHg 89%
    05:00 +3°C° 0 mm 4 mps 756 mmHg 90%
    06:00 +3°C° 0 mm 4 mps 756 mmHg 90%
    07:00 +3°C° 0 mm 4 mps 756 mmHg 91%
    08:00 +3°C° 0 mm 4 mps 756 mmHg 91%
    09:00 +3°C° 0 mm 5 mps 755 mmHg 92%
    10:00 +3°C° 0 mm 5 mps 755 mmHg 91%
    11:00 +5°C° 0 mm 5 mps 754 mmHg 90%
    12:00 +6°C° 0 mm 5 mps 754 mmHg 89%
    13:00 +5°C° 0 mm 6 mps 753 mmHg 89%
    14:00 +7°C° 0 mm 6 mps 752 mmHg 89%
    15:00 +7°C° 0 mm 6 mps 751 mmHg 89%
    16:00 +7°C° 0 mm 6 mps 751 mmHg 90%
    17:00 +7°C° 0 mm 6 mps 751 mmHg 91%
    18:00 +7°C° 0 mm 6 mps 751 mmHg 92%
    19:00 +7°C° 0 mm 6 mps 751 mmHg 92%
    20:00 +6°C° 0 mm 5 mps 751 mmHg 92%
    21:00 +6°C° 0 mm 4 mps 751 mmHg 92%
    22:00 +6°C° 0.1 mm 4 mps 752 mmHg 92%
    23:00 +6°C° 0.1 mm 4 mps 752 mmHg 92%

    Day after tomorrow, 12 December, Wednesday

    Time Temperature Precipitation Wind Pressure Humidity
    00:00 +5°C° 0.1 mm 4 mps 753 mmHg 91%
    01:00 +5°C° 0.2 mm 3 mps 753 mmHg 91%
    02:00 +5°C° 0.2 mm 3 mps 754 mmHg 91%
    03:00 +4°C° 0.2 mm 3 mps 754 mmHg 91%
    04:00 +5°C° 0 mm 2 mps 755 mmHg 91%
    05:00 +5°C° 0 mm 2 mps 755 mmHg 91%
    06:00 +6°C° 0 mm 1 mps 755 mmHg 92%
    07:00 +6°C° 0 mm 1 mps 756 mmHg 91%
    08:00 +6°C° 0 mm 1 mps 756 mmHg 90%
    09:00 +6°C° 0 mm 1 mps 757 mmHg 89%
    10:00 +7°C° 0 mm 1 mps 757 mmHg 84%
    11:00 +8°C° 0 mm 1 mps 757 mmHg 78%
    12:00 +8°C° 0 mm 2 mps 757 mmHg 73%
    13:00 +9°C° 0 mm 1 mps 756 mmHg 72%
    14:00 +10°C° 0 mm 1 mps 756 mmHg 71%
    15:00 +10°C° 0 mm 1 mps 756 mmHg 70%
    16:00 +9°C° 0 mm 1 mps 756 mmHg 74%
    17:00 +8°C° 0 mm 1 mps 756 mmHg 77%
    18:00 +8°C° 0 mm 1 mps 757 mmHg 81%
    19:00 +7°C° 0 mm 1 mps 757 mmHg 82%
    20:00 +7°C° 0 mm 1 mps 757 mmHg 83%
    21:00 +7°C° 0 mm 1 mps 757 mmHg 84%
    22:00 +7°C° 0.3 mm 1 mps 757 mmHg 85%
    23:00 +6°C° 0.3 mm 2 mps 757 mmHg 86%

    13 December, Thursday

    Time Temperature Precipitation Wind Pressure Humidity
    00:00 +6°C° 0.3 mm 2 mps 757 mmHg 87%
    01:00 +6°C° 0.4 mm 2 mps 757 mmHg 88%
    02:00 +6°C° 0.4 mm 2 mps 757 mmHg 89%
    03:00 +6°C° 0.4 mm 2 mps 757 mmHg 89%
    04:00 +5°C° 0.3 mm 2 mps 757 mmHg 89%
    05:00 +5°C° 0.3 mm 2 mps 758 mmHg 89%
    06:00 +5°C° 0.3 mm 2 mps 758 mmHg 89%
    07:00 +5°C° 0.6 mm 2 mps 758 mmHg 90%
    08:00 +6°C° 0.6 mm 1 mps 759 mmHg 90%
    09:00 +6°C° 0.6 mm 1 mps 759 mmHg 90%
    10:00 +6°C° 0.6 mm 1 mps 759 mmHg 89%
    11:00 +6°C° 0.6 mm 1 mps 760 mmHg 89%
    12:00 +7°C° 0.6 mm 1 mps 760 mmHg 88%
    13:00 +7°C° 0.5 mm 1 mps 760 mmHg 88%
    14:00 +7°C° 0.5 mm 1 mps 761 mmHg 89%
    15:00 +7°C° 0.5 mm 1 mps 761 mmHg 89%
    16:00 +5°C° 0.4 mm 2 mps 762 mmHg 89%
    17:00 +4°C° 0.4 mm 3 mps 762 mmHg 89%
    18:00 +4°C° 0.4 mm 3 mps 763 mmHg 88%
    19:00 +3°C° 0.1 mm 3 mps 763 mmHg 87%
    20:00 +3°C° 0.1 mm 4 mps 763 mmHg 85%
    21:00 +3°C° 0.1 mm 4 mps 764 mmHg 84%
    22:00 +3°C° 0 mm 3 mps 764 mmHg 84%
    23:00 +2°C° 0 mm 3 mps 764 mmHg 85%

    14 December, Friday

    Time Temperature Precipitation Wind Pressure Humidity
    00:00 +2°C° 0 mm 3 mps 764 mmHg 85%
    01:00 +1°C° 0 mm 3 mps 764 mmHg 86%
    02:00 +1°C° 0 mm 3 mps 765 mmHg 86%
    03:00 +2°C° 0 mm 2 mps 765 mmHg 87%
    04:00 +2°C° 0 mm 2 mps 765 mmHg 88%
    05:00 +1°C° 0 mm 2 mps 765 mmHg 89%
    06:00 +2°C° 0 mm 1 mps 765 mmHg 89%
    07:00 +2°C° 0 mm 1 mps 765 mmHg 86%
    08:00 +3°C° 0 mm 1 mps 765 mmHg 83%
    09:00 +3°C° 0 mm 1 mps 766 mmHg 80%
    10:00 +4°C° 0 mm 1 mps 765 mmHg 74%
    11:00 +5°C° 0 mm 1 mps 765 mmHg 68%
    12:00 +6°C° 0 mm 1 mps 765 mmHg 62%
    13:00 +6°C° 0 mm 1 mps 765 mmHg 61%
    14:00 +5°C° 0 mm 2 mps 764 mmHg 59%
    15:00 +5°C° 0 mm 2 mps 764 mmHg 58%
    16:00 +4°C° 0 mm 2 mps 764 mmHg 62%
    17:00 +4°C° 0 mm 2 mps 765 mmHg 65%
    18:00 +3°C° 0 mm 2 mps 765 mmHg 69%
    19:00 +3°C° 0 mm 2 mps 765 mmHg 70%
    20:00 +2°C° 0 mm 2 mps 765 mmHg 71%
    21:00 +2°C° 0 mm 2 mps 765 mmHg 72%
    22:00 +2°C° 0 mm 2 mps 765 mmHg 73%
    23:00 +1°C° 0 mm 2 mps 765 mmHg 74%

    15 December, Saturday

    Time Temperature Precipitation Wind Pressure Humidity
    00:00 +1°C° 0 mm 2 mps 765 mmHg 75%
    01:00 +1°C° 0 mm 2 mps 766 mmHg 75%
    02:00 +1°C° 0 mm 2 mps 766 mmHg 75%
    03:00 +1°C° 0 mm 2 mps 766 mmHg 75%
    04:00 +1°C° 0 mm 2 mps 766 mmHg 75%
    05:00 +1°C° 0 mm 2 mps 766 mmHg 75%
    06:00 +1°C° 0 mm 2 mps 766 mmHg 75%
    07:00 +1°C° 0 mm 2 mps 766 mmHg 73%
    08:00 +1°C° 0 mm 2 mps 767 mmHg 72%
    09:00 +1°C° 0 mm 2 mps 767 mmHg 71%
    10:00 +2°C° 0 mm 2 mps 767 mmHg 66%
    11:00 +3°C° 0 mm 2 mps 767 mmHg 61%
    12:00 +4°C° 0 mm 2 mps 767 mmHg 57%
    13:00 +4°C° 0 mm 2 mps 767 mmHg 56%
    14:00 +6°C° 0 mm 1 mps 767 mmHg 56%
    15:00 +6°C° 0 mm 1 mps 767 mmHg 56%
    16:00 +5°C° 0 mm 1 mps 767 mmHg 59%
    17:00 +5°C° 0 mm 1 mps 767 mmHg 61%
    18:00 +3°C° 0 mm 2 mps 768 mmHg 64%
    19:00 +3°C° 0 mm 2 mps 768 mmHg 65%
    20:00 +3°C° 0 mm 2 mps 768 mmHg 67%
    21:00 +2°C° 0 mm 2 mps 768 mmHg 68%
    22:00 +2°C° 0 mm 2 mps 768 mmHg 69%
    23:00 +2°C° 0 mm 2 mps 768 mmHg 70%
    Show more